Vertical_Velocity
-2 -2 0 -0 -1 -1 -0 -2 1 0 -1 0 2 1 -1 -1 -0 1 -1 -1 -2 0 1 1 1 1 -3 -2 -1 -1 -1 15 6 0 20 4 5 -1 -0 3 -1 2 -3 2 2
-1 -1 -1 -1 0 -0 -1 0 -3 0 1 -1 1 2 0 0 -1 -3 2 2 2 -0 -0 0 0 1 -3 -2 3 0 3 62 -8 -3 -4 1 1 -3 -1 -3 -4 -2 0 -0 2
1 -0 -1 -2 1 0 0 -1 0 -2 -0 -0 -0 1 1 0 -0 -0 -2 -2 -0 -2 0 -1 1 -1 -3 -1 2 10 6 1 5 -1 1 2 7 -4 -0 1 -3 -3 -0 -1 -3
-0 -1 -1 1 1 0 -1 1 -1 1 -2 0 -0 -0 1 1 7 1 -1 0 -0 1 1 1 2 -2 -2 -1 -2 16 6 -11 -1 3 0 -0 -2 4 -1 -2 -4 -3 -1 -1 -4
-2 -1 -2 -2 -1 -1 1 0 1 -1 1 -2 -0 -1 0 -2 3 -2 0 1 1 1 1 1 1 0 -2 -1 7 6 9 -2 5 3 1 -0 3 1 11 -0 -2 -3 -6 4 -2
-0 -1 -1 -1 -2 -2 -2 0 2 2 -1 1 -2 -0 -1 0 7 -1 2 2 -1 -0 -0 4 2 -3 -3 -6 -0 -2 2 -2 3 8 -0 -4 -8 -1 1 -1 1 -3 -2 -3 -2
-1 -1 -0 -2 1 0 -2 -2 -0 1 0 1 -0 -1 4 -8 5 0 0 1 1 -0 3 4 -6 -1 -4 -3 2 1 2 -4 -0 1 2 -4 -6 -18 2 -9 3 -5 -0 0 0
-1 -1 -1 -2 -1 0 1 -1 -1 -0 0 -1 -0 2 -2 8 4 1 2 1 0 2 3 0 -5 -5 4 -8 -8 -7 -1 4 -1 6 4 -5 119 13 3 2 -4 -1 -1 -1 -1
-2 -1 -1 0 -2 -2 -1 3 -0 -0 -1 2 2 3 -8 6 2 -1 2 1 -1 -1 1 2 2 2 -3 1 -3 -11 -4 2 3 -1 -0 3 -16 30 17 -0 2 -1 1 -0 -0
-2 -2 -0 -1 -1 -1 0 0 2 1 1 -1 4 3 4 -7 -3 0 0 2 3 -1 -2 -2 2 -1 -1 -7 1 -1 -0 4 1 -6 7 4 11 7 -18 4 -2 -2 1 -1 3
1 1 0 -0 -3 -1 1 -1 -1 1 -0 1 2 -3 -2 5 4 4 2 0 -0 -3 -2 0 -2 4 7 7 -1 5 -1 1 11 21 -9 10 9 12 9 -7 -1 -1 -2 -0 1
2 1 -3 -2 -1 -2 -1 -1 0 -1 -0 2 1 -3 10 -3 3 3 0 -1 -3 5 0 -6 3 5 -0 2 2 1 -4 0 -22 34 8 3 12 -5 13 9 -3 -2 -2 -0 -1
-1 -3 2 2 -1 -0 -1 -4 -0 0 3 -2 0 1 2 2 0 2 -0 3 3 -1 2 1 21 0 2 -3 2 -2 -3 4 10 19 -4 -0 27 18 7 7 4 -3 -0 -2 -1
-0 -1 0 4 -2 -3 -2 -3 -4 -1 1 -1 1 5 -2 2 -0 1 4 4 2 3 2 -3 5 -1 -0 3 1 -3 6 1 0 4 -3 -16 -13 -10 20 6 5 -0 -3 5 -6
1 2 -2 -3 -1 0 -4 -1 -1 -1 2 2 -4 -1 4 7 2 6 6 -1 0 5 -6 15 1 1 -4 5 -1 10 3 7 8 5 8 -6 6 16 15 5 -0 0 -0 6 -10
1 -0 0 -4 -1 0 -1 -2 -4 -2 -4 -1 1 -2 -0 5 -1 -2 5 1 4 -3 -6 3 3 -5 13 -2 1 20 -2 -7 -3 3 4 5 11 7 3 -2 5 -1 -4 7 3
1 -2 -1 -0 -2 -0 3 1 -3 -6 4 0 7 -9 2 -1 2 -2 -2 2 -3 -2 -1 4 2 4 1 -4 0 5 0 -4 2 3 -1 -5 8 -3 10 -3 -9 -3 -2 -1 6
2 4 -1 -1 -2 -2 1 -2 -1 -6 1 -1 -0 1 -17 6 -0 2 1 3 4 3 5 9 -10 2 9 1 6 7 6 2 -4 1 -3 11 9 6 -2 -2 -6 -8 6 3 -5
-3 -3 1 1 -3 -2 1 -2 1 0 2 -7 2 4 -6 9 15 22 9 -6 3 7 8 2 5 3 -2 -2 -5 13 -20 18 7 15 4 -9 3 -3 -3 -9 0 -3 -1 -6 -2
-1 -1 -2 5 8 -1 1 0 -2 -3 -5 1 -3 -12 2 -1 -2 5 12 18 5 0 -4 7 -6 0 11 2 -3 -20 14 2 -5 -3 7 1 7 6 6 2 -7 -3 1 -8 -4
0 4 2 0 -18 -3 -3 -4 1 3 4 0 -7 -5 4 -16 10 -10 8 1 -4 6 2 4 2 5 10 -10 0 -9 -7 -0 3 -4 -3 5 3 2 -3 0 0 -5 -7 -4 2
-1 -4 1 0 -0 -2 -1 -8 1 -6 3 -2 2 -4 7 -5 3 10 3 9 -7 2 13 -34 -11 -12 -18 2 -5 2 -3 -1 -8 1 12 13 -3 1 15 4 -2 -5 -4 -8 -1
-3 -11 -10 -1 -6 -3 2 2 2 -13 -0 0 -0 0 -1 -1 6 -4 -2 10 11 -15 -6 8 11 13 5 7 -11 -10 7 7 1 17 -5 5 -6 -1 -3 22 -2 1 -3 -3 -1
1 -1 3 2 -7 -1 -3 -0 -7 -1 4 4 -0 0 7 -4 -1 0 5 -9 5 2 -1 12 -14 -24 -2 11 8 3 -17 -7 11 18 16 -11 -2 4 -0 6 -4 1 3 2 -1
1 -1 -1 2 3 -1 -3 -2 7 0 2 2 4 8 2 -2 -2 -3 -14 -1 -2 11 20 0 23 5 3 10 -10 -9 -9 5 10 -2 15 -25 4 0 -0 -5 -5 -1 1 1 0
1 0 -4 -0 2 -1 0 1 5 1 2 1 -1 0 -1 3 -1 -5 -7 -5 -0 7 -28 -0 -9 12 -1 -4 -5 -13 5 8 19 -5 -14 6 -0 2 -3 -3 -5 1 -0 -1 -0
-0 -1 -3 0 -2 -2 -3 -1 1 1 1 1 -6 -4 8 11 -2 4 -1 -5 2 4 -5 12 2 7 -2 6 11 22 34 30 14 5 -32 -9 4 6 2 -1 -0 1 1 3 2
Height
5851 5851 5851 5851 5851 5852 5852 5852 5853 5854 5856 5858 5860 5862 5864 5866 5869 5872 5874 5878 5880 5883 5886 5887 5890 5892 5893 5895 5898 5896 5896 5891 5895 5898 5899 5901 5901 5904 5906 5907 5907 5910 5910 5913 5915
5844 5844 5844 5845 5845 5846 5847 5848 5849 5850 5852 5853 5856 5858 5861 5863 5866 5869 5874 5875 5878 5881 5884 5886 5888 5890 5892 5895 5897 5890 5894 5871 5896 5901 5902 5903 5904 5906 5908 5909 5910 5910 5912 5915 5916
5838 5837 5837 5837 5838 5839 5840 5843 5844 5845 5847 5849 5850 5853 5857 5860 5863 5866 5868 5872 5875 5879 5882 5884 5887 5889 5890 5894 5894 5893 5893 5895 5899 5900 5903 5903 5904 5906 5908 5910 5910 5912 5912 5917 5916
5833 5832 5832 5831 5831 5832 5834 5836 5838 5840 5842 5844 5846 5848 5852 5856 5862 5862 5865 5869 5873 5876 5881 5884 5887 5887 5889 5890 5891 5883 5895 5898 5899 5902 5902 5903 5904 5906 5909 5911 5910 5912 5914 5917 5917
5828 5827 5827 5826 5826 5826 5827 5829 5831 5834 5836 5838 5841 5843 5846 5851 5856 5857 5861 5865 5869 5873 5877 5882 5884 5886 5886 5889 5892 5895 5897 5900 5901 5903 5902 5903 5903 5906 5909 5911 5912 5913 5915 5918 5919
5823 5821 5820 5820 5820 5821 5822 5822 5824 5826 5829 5832 5835 5838 5841 5845 5852 5853 5856 5860 5864 5868 5873 5879 5881 5882 5883 5886 5892 5894 5897 5898 5901 5903 5901 5904 5906 5906 5907 5910 5914 5914 5915 5916 5920
5818 5817 5814 5813 5813 5813 5814 5816 5816 5819 5822 5825 5828 5832 5836 5838 5846 5848 5851 5855 5859 5863 5868 5874 5875 5879 5880 5884 5889 5891 5894 5897 5901 5901 5902 5905 5901 5907 5907 5911 5914 5915 5915 5917 5920
5814 5812 5810 5808 5807 5806 5807 5808 5809 5811 5814 5817 5821 5825 5829 5834 5840 5842 5846 5851 5855 5859 5863 5867 5870 5874 5880 5880 5884 5889 5892 5896 5899 5900 5901 5904 5894 5902 5907 5909 5911 5914 5915 5918 5919
5809 5806 5805 5803 5802 5800 5800 5800 5802 5804 5806 5809 5814 5818 5821 5828 5833 5835 5841 5845 5849 5854 5858 5862 5866 5872 5875 5880 5884 5885 5892 5895 5898 5898 5902 5903 5903 5898 5904 5907 5909 5912 5915 5918 5919
5804 5803 5802 5799 5796 5795 5794 5794 5794 5796 5799 5802 5806 5811 5815 5819 5824 5829 5835 5840 5844 5848 5853 5857 5862 5867 5871 5875 5882 5887 5891 5892 5893 5896 5901 5901 5903 5904 5907 5907 5910 5911 5914 5916 5919
5798 5795 5794 5794 5794 5790 5788 5788 5789 5791 5791 5794 5799 5801 5806 5812 5817 5823 5827 5833 5838 5842 5848 5853 5857 5863 5869 5875 5880 5886 5888 5892 5891 5894 5892 5898 5899 5904 5906 5907 5908 5910 5912 5914 5918
5795 5794 5792 5789 5787 5786 5783 5782 5781 5783 5785 5786 5790 5794 5799 5803 5810 5815 5821 5826 5831 5837 5843 5847 5852 5861 5865 5871 5875 5879 5881 5884 5882 5883 5892 5897 5893 5901 5903 5905 5907 5908 5910 5912 5916
5789 5786 5784 5783 5782 5781 5780 5778 5776 5776 5778 5780 5782 5786 5790 5796 5801 5807 5814 5819 5826 5832 5837 5843 5855 5855 5861 5864 5870 5873 5875 5881 5884 5890 5889 5885 5881 5899 5900 5901 5905 5907 5909 5911 5913
5784 5782 5780 5778 5777 5774 5773 5772 5772 5770 5772 5774 5776 5779 5782 5786 5794 5799 5805 5812 5818 5825 5831 5836 5846 5849 5854 5862 5865 5869 5875 5878 5875 5883 5885 5881 5886 5895 5895 5897 5901 5903 5908 5908 5911
5779 5777 5775 5771 5769 5769 5767 5766 5765 5765 5767 5769 5766 5770 5775 5780 5786 5792 5799 5804 5809 5817 5823 5832 5837 5842 5846 5855 5860 5869 5870 5876 5877 5880 5881 5884 5890 5891 5892 5893 5897 5902 5905 5903 5908
5773 5771 5770 5765 5761 5760 5759 5759 5759 5761 5762 5764 5763 5765 5769 5773 5777 5782 5791 5796 5804 5810 5814 5825 5831 5836 5843 5848 5856 5868 5867 5868 5872 5874 5871 5878 5883 5884 5887 5891 5894 5899 5901 5902 5905
5767 5766 5762 5759 5756 5754 5754 5754 5755 5754 5757 5758 5760 5762 5764 5765 5771 5775 5781 5788 5794 5801 5809 5817 5822 5827 5834 5840 5849 5858 5862 5863 5867 5868 5874 5877 5880 5879 5885 5888 5891 5894 5897 5899 5900
5762 5760 5756 5754 5750 5749 5749 5749 5749 5751 5753 5755 5757 5759 5760 5763 5765 5770 5774 5783 5790 5796 5804 5811 5816 5823 5827 5833 5844 5850 5856 5857 5862 5867 5875 5881 5877 5879 5882 5884 5888 5891 5894 5898 5896
5759 5756 5752 5749 5746 5746 5747 5746 5746 5747 5751 5752 5752 5755 5757 5761 5764 5768 5772 5777 5785 5791 5798 5803 5811 5819 5823 5827 5835 5845 5848 5859 5863 5866 5873 5873 5875 5875 5879 5878 5884 5889 5893 5896 5895
5756 5753 5749 5748 5745 5742 5743 5743 5745 5747 5747 5748 5749 5748 5750 5753 5754 5757 5765 5775 5780 5786 5791 5796 5798 5809 5819 5823 5828 5838 5847 5854 5855 5861 5867 5870 5872 5871 5875 5874 5879 5888 5893 5896 5894
5753 5751 5749 5744 5737 5741 5743 5742 5742 5744 5743 5743 5743 5742 5745 5748 5751 5750 5755 5761 5768 5779 5785 5788 5793 5806 5812 5817 5827 5834 5836 5846 5851 5858 5860 5861 5863 5865 5870 5875 5876 5881 5887 5891 5894
5751 5748 5746 5743 5743 5740 5744 5745 5741 5738 5741 5741 5739 5739 5739 5746 5748 5751 5755 5759 5764 5769 5774 5781 5790 5797 5804 5812 5820 5826 5832 5840 5844 5852 5857 5856 5857 5857 5863 5866 5871 5874 5879 5884 5889
5749 5746 5745 5744 5743 5742 5741 5740 5737 5737 5737 5735 5736 5735 5738 5741 5744 5751 5754 5759 5763 5764 5771 5783 5789 5794 5799 5805 5810 5815 5823 5834 5843 5846 5846 5846 5846 5855 5852 5857 5864 5870 5875 5878 5882
5749 5746 5745 5744 5741 5741 5740 5739 5737 5739 5738 5735 5735 5736 5738 5742 5745 5750 5755 5756 5756 5765 5770 5777 5776 5780 5792 5802 5806 5811 5818 5826 5836 5840 5839 5834 5842 5847 5850 5854 5861 5864 5871 5873 5876
5749 5747 5744 5744 5742 5740 5739 5739 5740 5738 5738 5737 5737 5737 5738 5742 5744 5750 5752 5754 5758 5762 5762 5765 5773 5777 5785 5793 5798 5804 5812 5824 5829 5829 5831 5830 5835 5837 5846 5851 5856 5860 5866 5869 5872
5750 5748 5744 5743 5741 5739 5738 5739 5739 5738 5738 5737 5736 5735 5736 5742 5743 5745 5748 5754 5755 5757 5757 5767 5773 5776 5785 5789 5796 5802 5809 5819 5823 5819 5819 5825 5828 5833 5838 5845 5850 5856 5860 5864 5867
5750 5749 5747 5745 5740 5739 5738 5738 5738 5738 5738 5736 5735 5734 5736 5741 5742 5746 5749 5749 5754 5756 5759 5766 5771 5769 5771 5783 5792 5800 5805 5810 5807 5808 5814 5825 5827 5832 5836 5839 5846 5852 5857 5860 5863